TimePST,TemperatureF,Dew PointF,Humidity,Sea Level PressureIn,VisibilityMPH,Wind Direction,Wind SpeedMPH,Gust SpeedMPH,PrecipitationIn,Events,Conditions,WindDirDegrees,DateUTC
12:53 AM,34.0,32.0,92,30.18,10.0,Calm,Calm,-,N/A,Fog,Shallow Fog,0,2013-02-08 08:53:00
1:41 AM,32.0,30.2,93,30.19,7.0,Calm,Calm,-,N/A,Fog,Shallow Fog,0,2013-02-08 09:41:00
1:53 AM,33.1,30.9,92,30.19,7.0,Calm,Calm,-,N/A,Fog,Shallow Fog,0,2013-02-08 09:53:00
2:51 AM,32.0,30.2,93,30.20,2.0,East,4.6,-,N/A,Fog,Shallow Fog,90,2013-02-08 10:51:00
2:53 AM,32.0,30.9,96,30.20,2.0,East,4.6,-,N/A,,Mostly Cloudy,80,2013-02-08 10:53:00
3:25 AM,32.0,30.2,93,30.20,1.0,Calm,Calm,-,N/A,,Overcast,0,2013-02-08 11:25:00
3:43 AM,30.2,30.2,100,30.20,0.8,Calm,Calm,-,N/A,,Overcast,0,2013-02-08 11:43:00
3:53 AM,33.1,30.9,92,30.20,0.8,Calm,Calm,-,N/A,,Overcast,0,2013-02-08 11:53:00
3:59 AM,32.0,30.2,93,30.21,0.2,Calm,Calm,-,N/A,Fog,Fog,0,2013-02-08 11:59:00
4:11 AM,33.8,32.0,93,30.21,0.2,Calm,Calm,-,N/A,Fog,Fog,0,2013-02-08 12:11:00
4:36 AM,32.0,30.2,93,30.22,0.2,Calm,Calm,-,N/A,Fog,Fog,0,2013-02-08 12:36:00
4:53 AM,32.0,30.9,96,30.22,0.2,Calm,Calm,-,N/A,Fog,Fog,0,2013-02-08 12:53:00
5:24 AM,32.0,30.2,93,30.23,0.1,Calm,Calm,-,N/A,Fog,Fog,0,2013-02-08 13:24:00
5:31 AM,32.0,30.2,93,30.23,0.1,ENE,3.5,-,N/A,Fog,Fog,70,2013-02-08 13:31:00
5:53 AM,30.9,30.0,96,30.24,0.1,Calm,Calm,-,N/A,Fog,Light Freezing Fog,0,2013-02-08 13:53:00
6:00 AM,30.2,30.2,100,30.24,0.2,Calm,Calm,-,N/A,Fog,Light Freezing Fog,0,2013-02-08 14:00:00
6:53 AM,32.0,32.0,100,30.25,0.2,ENE,6.9,-,N/A,,Overcast,70,2013-02-08 14:53:00
7:53 AM,33.1,33.1,100,30.27,0.2,Calm,Calm,-,N/A,Fog,Fog,0,2013-02-08 15:53:00
8:53 AM,35.1,33.1,92,30.28,0.2,Calm,Calm,-,N/A,,Overcast,0,2013-02-08 16:53:00
9:14 AM,35.6,33.8,93,30.29,0.8,ENE,4.6,-,N/A,,Overcast,60,2013-02-08 17:14:00
9:27 AM,35.6,33.8,93,30.29,5.0,ENE,4.6,-,N/A,,Overcast,60,2013-02-08 17:27:00
9:53 AM,36.0,34.0,93,30.29,10.0,Calm,Calm,-,N/A,,Overcast,0,2013-02-08 17:53:00
10:53 AM,37.9,33.1,83,30.30,10.0,North,3.5,-,N/A,,Mostly Cloudy,10,2013-02-08 18:53:00
11:28 AM,39.2,33.8,81,30.30,10.0,NE,6.9,-,N/A,,Mostly Cloudy,50,2013-02-08 19:28:00
11:53 AM,39.9,34.0,79,30.30,10.0,ENE,5.8,-,N/A,,Mostly Cloudy,70,2013-02-08 19:53:00
12:53 PM,41.0,34.0,76,30.27,10.0,Calm,Calm,-,N/A,,Overcast,0,2013-02-08 20:53:00
1:53 PM,42.1,34.0,73,30.27,10.0,East,4.6,-,N/A,,Mostly Cloudy,90,2013-02-08 21:53:00
2:24 PM,44.6,35.6,71,30.26,10.0,ESE,4.6,-,N/A,,Scattered Clouds,110,2013-02-08 22:24:00
2:53 PM,44.1,35.1,71,30.26,10.0,East,5.8,-,N/A,,Scattered Clouds,80,2013-02-08 22:53:00
3:53 PM,45.0,35.1,68,30.27,10.0,ESE,4.6,-,N/A,,Scattered Clouds,120,2013-02-08 23:53:00
4:53 PM,45.0,33.1,63,30.26,10.0,NNW,8.1,-,N/A,,Mostly Cloudy,340,2013-02-09 00:53:00
5:53 PM,39.9,34.0,79,30.27,10.0,East,6.9,-,N/A,,Scattered Clouds,80,2013-02-09 01:53:00
6:53 PM,39.9,34.0,79,30.27,10.0,East,4.6,-,N/A,,Scattered Clouds,100,2013-02-09 02:53:00
7:53 PM,39.0,34.0,82,30.27,10.0,East,3.5,-,N/A,,Scattered Clouds,100,2013-02-09 03:53:00
8:53 PM,36.0,33.1,89,30.28,10.0,East,3.5,-,N/A,,Scattered Clouds,100,2013-02-09 04:53:00
9:53 PM,36.0,33.1,89,30.28,10.0,Calm,Calm,-,N/A,,Scattered Clouds,0,2013-02-09 05:53:00
10:53 PM,35.1,32.0,89,30.28,10.0,ESE,3.5,-,N/A,,Partly Cloudy,110,2013-02-09 06:53:00
11:53 PM,34.0,32.0,92,30.29,8.0,Calm,Calm,-,N/A,,Clear,0,2013-02-09 07:53:00